This demonstration page uses our WeatherBlox Daily Observations layout. Learn more.

Left ArrowRight Arrow

41.86663, -103.66717

Hourly Observations for January 26, 2016

Temp ( °F °C ) Dew Point ( °F °C ) Humidity (%) Winds ( mph kmh ) Pressure ( in mb ) Visibility ( mi km ) Precip ( " mm )
12:53 am 00:53 Clear 21 -6.1 17 -8.3 85 85 NNW 6 9 30.27 1025 10 16 N/A
1:53 am 01:53 Mostly Cloudy 21 -6.1 17 -8.3 85 85 NW 6 9 30.28 1026 10 16 N/A
2:53 am 02:53 Mostly Clear 21 -6.1 17 -8.3 85 85 N 5 7 30.29 1026 10 16 N/A
3:53 am 03:53 Clear 21 -6.1 17 -8.3 85 85 NNW 5 7 30.29 1026 10 16 N/A
4:53 am 04:53 Clear 18 -7.8 15 -9.4 88 88 NW 6 9 30.32 1027 10 16 N/A
5:53 am 05:53 Clear 19 -7.2 14 -10 81 81 WNW 6 9 30.33 1027 10 16 N/A
6:53 am 06:53 Clear 16 -8.9 13 -10.6 88 88 WNW 3 6 30.35 1028 10 16 N/A
7:53 am 07:53 Sunny 20 -6.7 15 -9.4 81 81 NNW 6 9 30.36 1028 10 16 N/A
8:53 am 08:53 Sunny 26 -3.3 18 -7.8 71 71 WNW 5 7 30.35 1028 10 16 N/A
9:53 am 09:53 Sunny 29 -1.7 18 -7.8 63 63 WNW 9 15 30.34 1028 10 16 N/A
10:53 am 10:53 Sunny 33 0.6 20 -6.7 58 58 WNW 9 15 30.33 1027 10 16 N/A
11:53 am 11:53 Sunny 39 3.9 17 -8.3 41 41 W 16 26 30.29 1026 10 16 N/A
12:53 pm 12:53 Sunny 41 5 16 -8.9 36 36 WNW 17 28 30.26 1025 10 16 N/A
1:53 pm 13:53 Sunny 41 5 16 -8.9 36 36 WNW 13 20 30.24 1024 10 16 N/A
2:53 pm 14:53 Sunny 42 5.6 17 -8.3 36 36 W 17 28 30.22 1023 10 16 N/A
3:53 pm 15:53 Mostly Cloudy 38 3.3 19 -7.2 46 46 W 18 30 30.23 1024 10 16 N/A
4:53 pm 16:53 Sunny 36 2.2 19 -7.2 50 50 W 14 22 30.25 1025 10 16 N/A
5:53 pm 17:53 Clear 34 1.1 20 -6.7 56 56 WNW 9 15 30.26 1025 10 16 N/A
6:53 pm 18:53 Clear 31 -0.6 19 -7.2 61 61 WNW 9 15 30.31 1026 10 16 N/A
7:53 pm 19:53 Clear 28 -2.2 19 -7.2 69 69 WNW 7 11 30.31 1026 10 16 N/A
8:53 pm 20:53 Clear 26 -3.3 19 -7.2 75 75 NNW 3 6 30.30 1026 10 16 N/A
9:53 pm 21:53 Clear 26 -3.3 18 -7.8 71 71 W 3 6 30.28 1026 10 16 N/A
10:53 pm 22:53 Clear 26 -3.3 17 -8.3 69 69 N N/A 30.27 1025 10 16 N/A
11:53 pm 23:53 Clear 26 -3.3 17 -8.3 69 69 NNW 3 6 30.25 1025 10 16 N/A

Powered by AerisWeather